Regional Weather Roundup
Issued by NWS

Home | Current Version | Previous Version | Graphics & Text | Print | Product List | Glossary On
Versions: 1 2 3 4 5 6 7 8 9 10 11 12 13 14 15 16 17 18 19 20 21 22 23 24 25 26 27 28 29 30 31 32 33 34 35 36 37 38 39 40 41 42 43 44 45 46 47 48 49 50
000
ASUS43 KMKX 260211
RWRWI

WISCONSIN REGIONAL WEATHER ROUNDUP
NATIONAL WEATHER SERVICE MILWAUKEE/SULLIVAN WI
900 PM CDT SAT OCT 25 2014

NOTE: "FAIR" INDICATES FEW OR NO CLOUDS BELOW 12,000 FEET WITH NO
SIGNIFICANT WEATHER AND/OR OBSTRUCTIONS TO VISIBILITY.

WIZ001-002-006>008-014>016-023>028-260300-
NORTHWEST WISCONSIN

CITY           SKY/WX    TMP DP  RH WIND       PRES   REMARKS
SUPERIOR ARPT  CLEAR     50  27  40 W8        29.99S
ASHLAND        CLEAR     48  28  46 W9        29.96R
HAYWARD        CLEAR     50  23  34 W6        29.99R
SIREN          CLEAR     46  25  44 NW3       30.02S
CUMBERLAND     CLEAR     45  25  45 W9        30.00F
RICE LAKE      CLEAR     47  24  40 W5        30.01F
CHETEK         CLEAR     49  25  39 W3        30.00S
LADYSMITH      CLEAR     50  23  34 NW12      30.00R
EAU CLAIRE     CLEAR     50  26  39 NW9       30.00S
MENOMONIE      CLEAR     51  26  38 W6        30.02R
NEW RICHMOND   CLEAR     45  28  51 W7        30.03S
OSCEOLA        CLEAR     49  28  42 W6        30.05S
$$

WIZ003>005-009-010-017-018-260300-
NORTH CENTRAL WISCONSIN

CITY           SKY/WX    TMP DP  RH WIND       PRES   REMARKS
MANITOWISH WTR CLEAR     47  26  44 NW10      29.92R
ARBOR VITAE    CLEAR     49  26  39 NW10      29.93R
WOODRUFF       CLEAR     49  26  39 NW10      29.93R
RHINELANDER    CLEAR     49  22  34 W10       29.92R
EAGLE RIVER    CLEAR     47  22  36 NW10      29.91R
LAND O LAKES   CLEAR     49  24  38 NW10      29.92R
PHILLIPS       CLEAR     47  23  38 CALM      29.95R
TOMAHAWK       CLEAR     45  21  39 W3        29.94R
MEDFORD        CLEAR     44  28  52 W7        29.95F
MERRILL        CLEAR     50  22  33 W5        29.93S
$$

WIZ029-030-035-036-043>047-260300-
CENTRAL WISCONSIN

CITY           SKY/WX    TMP DP  RH WIND       PRES   REMARKS
WAUSAU         CLEAR     49  28  44 W9        29.93R
MOSINEE        CLEAR     50  27  40 W14       29.95R
MARSHFIELD     CLEAR     49  27  42 NW10      29.96R
STEVENS POINT  CLEAR     49  26  40 W5        29.95S
WAUPACA        CLEAR     50  31  48 W7        29.94R
WAUTOMA        CLOUDY    50  30  46 CALM      29.97R
WISC RAPIDS    CLEAR     51  27  39 W8        29.97R
CAMP DOUGLAS   NOT AVBL
$$

WIZ011>013-019>022-031-037>040-048>050-260300-
NORTHEAST WISCONSIN

CITY           SKY/WX    TMP DP  RH WIND       PRES   REMARKS
ANTIGO         CLEAR     47  24  40 NW10G17   29.92R
SHAWANO        CLEAR     51  27  38 W6        29.91R
OCONTO         CLEAR     47  28  47 W8        29.88R
STURGEON BAY   CLEAR     54  28  37 W10       29.87R
GREEN BAY      CLEAR     50  33  52 W9        29.90R
MANITOWOC      CLEAR     54  31  41 W14       29.89R
APPLETON       CLEAR     48  28  46 W7        29.93R
CLINTONVILLE   CLEAR     50  30  46 W8        29.91R
OSHKOSH        CLEAR     53  29  39 W7        29.93R
$$

WIZ032>034-041-042-053>061-260300-
SOUTHWEST WISCONSIN

CITY           SKY/WX    TMP DP  RH WIND       PRES   REMARKS
LA CROSSE      CLEAR     53  30  41 NW3       30.01S
SPARTA         CLEAR     48  27  43 CALM      30.01R
VIROQUA        CLEAR     49  28  44 W5        30.01S
BOSCOBEL       CLEAR     47  30  51 W3        30.02S
PRAIRIE DU CHI CLEAR     47  32  54 W6        30.02S
PLATTEVILLE    CLEAR     51  30  45 W6        30.03S
$$

WIZ056-057-062-063-064-067-068-260300-
SOUTH CENTRAL WISCONSIN

CITY           SKY/WX    TMP DP  RH WIND       PRES   REMARKS
REEDSBURG      CLEAR     52  30  43 W5        29.98S
BARABOO/DELLS  CLEAR     51  26  38 W6        29.98S
LONE ROCK      CLEAR     56  28  34 W6        30.00S
MINERAL POINT  CLEAR     52  25  35 W5        30.00F
MADISON        CLEAR     55  27  34 NW8       29.98S
MIDDLETON      CLEAR     52  26  36 W6        29.99S
WATERTOWN      CLEAR     51  30  43 W6        29.96R
MONROE         CLEAR     54  30  40 NW10      29.99S
JANESVILLE     CLEAR     48  30  49 NW6       29.98R
$$

WIZ051-052-058>065-066-070>072-260300-
SOUTHEAST WISCONSIN

CITY           SKY/WX    TMP DP  RH WIND       PRES   REMARKS
MILWAUKEE      CLEAR     58  26  29 NW12      29.94R
WAUKESHA       CLEAR     52  28  40 W9        29.96R
MILWAUKEE/TIMM CLEAR     55  23  28 NW8       29.95R
RACINE         CLEAR     56  27  32 W9        29.96R
BURLINGTON     CLEAR     50  27  41 NW5       29.97R
KENOSHA        CLEAR     53  30  41 W9        29.95R
FOND DU LAC    CLEAR     53  28  38 W13       29.94R
SHEBOYGAN      CLEAR     53  30  41 W9        29.91R
WEST BEND      CLEAR     54  23  30 W10       29.94R
JUNEAU         CLEAR     51  29  42 W6        29.97R
$$

LSZ147-162-260300-
LAKE SUPERIOR

STATION/POSITION TIME  TEMP    WIND        PRES    WAVE
                       AIR SEA DIR/SP/G            HT/PER
                 (UTC) (F)     (DEG/KT/KT) (MB)    (FT/S)
W MID LAKE BUOY  0150   50 46  280/ 19/ 21 1011.5R   5/ 5
DEVILS ISLAND    0200   51     270/ 15/ 17 1013.8R
PORT WING        0140   53     260/ 12/ 16 1014.9R
SAXON HARBOR     0100   55     270/  7/ 13 1013.5R
$$

LMZ867-665-643>646-260300-
LAKE MICHIGAN

STATION/POSITION TIME  TEMP    WIND        PRES    WAVE
                       AIR SEA DIR/SP/G            HT/PER
                 (UTC) (F)     (DEG/KT/KT) (MB)    (FT/S)
CHAMBERS ISLAND  0100   56     310/  9/ 15 1010.8R
N MID LAKE BUOY  0150   54 51  300/ 17/ 21 1009.4R   3/ 4
NORTHPORT PIER   0100   56     300/ 12/ 20 1010.2R
SISTER BAY       0013          340/ 21/ 26   N/A
ALGOMA LAKESHORE 0141          310/  9/ 14   N/A
KEWAUNEE LAKESHO 0100   54     280/  5/  7 1010.5R
SHEBOYGAN LAKESH 0200   57 51  280/ 11/ 13 1013.1R
PORT WASHINGTON  0100   59     290/  8/ 12 1013.9R
ATWATER BUOY     0200   57     280/ 14/ 16 1014.7R
MILWAUKEE LAKESH 0100   61     290/ 10/ 13   N/A
S MID LAKE BUOY  0150   58 54  280/ 16/ 19 1012.9R   2/ 4
KENOSHA   LAKESH 0200   57     290/  9/ 12 1013.9R
$$

TC  - TEMPERATURE IN CELSIUS
VSB - VISIBILITY IN STATUTE MILES
WCI - WIND CHILL INDEX
HX  - HEAT INDEX




USA.gov is the U.S. government's official web portal to all federal, state and local government web resources and services.